Weather History for Talkeetna, AK

Change the Weather History Date:

Friday, December 28, 2012

  Actual Average Record
Temperature  
Mean Temperature 20 °F -  
Max Temperature 32 °F 21 °F 38 °F (1982)
Min Temperature 8 °F 8 °F -53 °F (1961)
Degree Days  
Heating Degree Days 45    
Moisture  
Dew Point 14 °F    
Average Humidity 67    
Maximum Humidity 88    
Minimum Humidity 43    
Precipitation  
Precipitation 0.00 in - - ()
Sea Level Pressure  
Sea Level Pressure 29.58 in    
Wind  
Wind Speed 4 mph (NNE)    
Max Wind Speed 15 mph    
Max Gust Speed 21 mph    
Visibility 10 miles    
Events      
Averages and records for this station are not official NWS values.
T = Trace of Precipitation, MM = Missing Value Source: NWS Daily Summary

Daily Weather History Graph

Daily Weather History Graph

Search for Another Location

Airport:

Trip Planner

Search our weather history database for the weather conditions in past years. The results will help you decide how hot, cold, wet, or windy it might be!

Date:

Astronomy

Dec. 28, 2012 Rise Set
Actual Time 10:28 AM AKST 3:36 PM AKST
Civil Twilight 9:22 AM AKST 4:42 PM AKST
Nautical Twilight 8:19 AM AKST 5:45 PM AKST
Astronomical Twilight 7:23 AM AKST 6:40 PM AKST
Moon 4:51 PM AKST (12/28) 10:03 AM AKST (12/28)
Length of Visible Light 7h 20m
Length of Day
5h 07m
Full, 100% of the Moon is Illuminated
Dec 28
Full
Jan 4
Last Quarter
Jan 11
New
Jan 18
First Quarter
Jan 26
Full

Hourly Weather History & Observations

Time (AKST) Temp. Windchill Dew Point Humidity Pressure Visibility Wind Dir Wind Speed Gust Speed Precip Events Conditions
12:53 AM 12.9 °F - 9.0 °F 84% 29.49 in 10.0 mi Calm Calm - N/A   Clear
1:53 AM 10.9 °F - 8.1 °F 88% 29.50 in 10.0 mi Calm Calm - N/A   Clear
3:53 AM 10.0 °F 3.6 °F 6.1 °F 84% 29.51 in 10.0 mi NE 3.5 mph - N/A   Clear
4:53 AM 10.9 °F 4.7 °F 8.1 °F 88% 29.52 in 10.0 mi NE 3.5 mph - N/A   Scattered Clouds
5:53 AM 10.0 °F - 6.1 °F 84% 29.53 in 10.0 mi Calm Calm - N/A   Clear
6:53 AM 15.1 °F - 10.0 °F 80% 29.54 in 10.0 mi Calm Calm - N/A   Overcast
7:53 AM 16.0 °F - 10.9 °F 81% 29.55 in 10.0 mi Calm Calm - N/A   Overcast
8:53 AM 15.1 °F 9.4 °F 10.9 °F 84% 29.57 in 10.0 mi NNE 3.5 mph - N/A   Mostly Cloudy
9:53 AM 19.9 °F 14.9 °F 14.0 °F 78% 29.58 in 10.0 mi NE 3.5 mph - N/A   Overcast
10:53 AM 28.0 °F 18.6 °F 16.0 °F 61% 29.58 in 10.0 mi NNE 10.4 mph - N/A   Overcast
11:53 AM 27.0 °F 20.5 °F 16.0 °F 63% 29.59 in 10.0 mi North 5.8 mph - N/A   Overcast
12:53 PM 26.1 °F 20.5 °F 17.1 °F 69% 29.62 in 10.0 mi NNW 4.6 mph - N/A   Overcast
1:53 PM 27.0 °F 20.5 °F 17.1 °F 66% 29.62 in 10.0 mi NE 5.8 mph - N/A   Overcast
2:53 PM 30.0 °F 22.4 °F 17.1 °F 59% 29.62 in 10.0 mi NNE 8.1 mph - N/A   Overcast
3:53 PM 30.0 °F 23.2 °F 17.1 °F 59% 29.63 in 10.0 mi NNE 6.9 mph - N/A   Overcast
4:53 PM 30.0 °F 22.4 °F 17.1 °F 59% 29.63 in 10.0 mi NNE 8.1 mph - N/A   Overcast
5:53 PM 30.9 °F 22.8 °F 17.1 °F 57% 29.64 in 10.0 mi North 9.2 mph - N/A   Overcast
6:53 PM 32.0 °F 24.8 °F 17.1 °F 54% 29.63 in 10.0 mi North 8.1 mph - N/A   Overcast
7:53 PM 32.0 °F 24.8 °F 18.0 °F 56% 29.62 in 10.0 mi NNE 8.1 mph - N/A   Overcast
8:53 PM 32.0 °F 21.6 °F 18.0 °F 56% 29.60 in 10.0 mi NNE 15.0 mph 20.7 mph N/A   Mostly Cloudy
9:53 PM 32.0 °F 22.5 °F 18.0 °F 56% 29.58 in 10.0 mi NNE 12.7 mph - N/A   Mostly Cloudy
10:53 PM 32.0 °F 23.0 °F 17.1 °F 54% 29.57 in 10.0 mi NNE 11.5 mph 19.6 mph N/A   Mostly Cloudy
11:53 PM 30.9 °F 21.7 °F 17.1 °F 57% 29.55 in 10.0 mi NNE 11.5 mph 18.4 mph N/A   Clear